Find Starlink 5590

NORAD ID: 55371 Int'l Des: 2023-013 Owner: SPXS Country: US Constellation: starlink operational
LEOCIRCULAR

Aktuelle Ansicht

3D-Globus wird geladen...

Über Starlink 5590

Beschreibung wird geladen...

Nächste Überflüge

Passes for default location (London). Set your location on the main map for personalized predictions.

Höhenverlauf

Loading altitude history...

Zweizeiliger Elementsatz

1 55371U 23013AS 26150.59738848 .00003493 00000-0 13653-3 0 9996
2 55371 43.0021 218.6404 0001409 272.8448 87.2243 15.27550079184917
Epoch: 30. Mai 2026 • Age: 25 hours

Aktueller Status

Höhe 489.1 km
Geschwindigkeit 7.62 km/s
Subsatellitenpunkt -26.60°S, 62.34°E
Startdatum 26. Jan. 2023
Alter 3.3 years
Typ internet

Technische Details

Klassifizierung Payload
Masse 305.00 kg
Trockenmasse 290.00 kg
Gesamtmasse 305.00 kg
Länge 0.20 m
Durchmesser 2.80 m
Spannweite 9.00 m
Form Box + pan
Hersteller SPXS
Bus-Typ Starlink
Phasenstatus In Orbit
Besitzer/Staat SPXS/US

Most Searched